EW1687 Weather Reports


time (UTC)temp
F
wind
direction
speed
knots
gust
knots
rain 1hr
in
rain 24hr
in
rain mn
in
humidity
%
barometer
mb
20260904135552 79 292 3.5 7.8 0.00 0.06 0.01 73 1015.4
20260904135052 79 268 3.5 8.7 0.00 0.06 0.01 75 1015.4
20260904134601 78 302 3.5 8.7 0.00 0.06 0.01 75 1015.5
20260904134052 77 325 2.6 7.8 0.00 0.06 0.01 76 1015.4
20260904133551 76 340 3.5 7.8 0.00 0.06 0.01 78 1015.4
20260904133100 76 5 2.6 7.8 0.00 0.06 0.01 79 1015.3
20260904132551 76 323 3.5 7.8 0.00 0.06 0.01 80 1015.2
20260904132051 75 309 1.7 5.2 0.00 0.06 0.01 81 1015.3
20260904131557 75 317 1.7 6.1 0.00 0.06 0.01 81 1015.3
20260904131050 75 319 2.6 7.8 0.00 0.06 0.01 82 1015.5
20260904130551 74 313 3.5 7.8 0.00 0.06 0.01 82 1015.6
20260904130054 74 288 1.7 6.1 0.00 0.06 0.01 83 1015.5
20260904125551 74 276 1.7 8.7 0.00 0.06 0.01 84 1015.5
20260904125051 73 284 3.5 8.7 0.00 0.06 0.01 85 1015.8
20260904124603 73 301 3.5 8.7 0.00 0.06 0.01 87 1015.8
20260904124057 72 270 0.0 3.5 0.00 0.06 0.01 87 1015.8
20260904123551 72 270 0.9 2.6 0.00 0.06 0.01 88 1015.8
20260904123057 72 270 0.9 2.6 0.00 0.06 0.01 88 1015.8
20260904122551 71 0 0.0 1.7 0.00 0.06 0.01 89 1015.8
20260904122050 71 0 0.0 1.7 0.00 0.06 0.01 91 1015.9
20260904121603 71 0 0.0 0.0 0.00 0.06 0.01 92 1015.8
20260904121054 70 0 0.0 2.6 0.00 0.06 0.01 92 1015.8
20260904120553 70 0 0.0 2.6 0.00 0.06 0.01 93 1016.0
20260904120118 69 0 0.0 0.0 0.00 0.06 0.01 93 1015.9
20260904115551 69 0 0.0 0.0 0.00 0.08 0.01 93 1015.8
20260904115051 69 0 0.0 0.0 0.00 0.08 0.01 93 1015.8
20260904114558 69 0 0.0 0.0 0.00 0.08 0.01 93 1015.9
20260904114051 69 0 0.0 0.0 0.00 0.08 0.01 93 1015.8
20260904113550 69 0 0.0 0.0 0.00 0.08 0.01 93 1015.7
20260904113058 69 0 0.0 0.0 0.00 0.08 0.01 93 1015.8
20260904112553 69 0 0.0 0.0 0.00 0.08 0.01 93 1015.7
20260904112054 68 0 0.0 0.0 0.00 0.08 0.01 93 1015.5
20260904111609 68 0 0.0 0.0 0.00 0.08 0.01 93 1015.3
20260904111051 68 0 0.0 0.0 0.00 0.08 0.01 93 1015.5
20260904110555 68 0 0.0 0.0 0.00 0.08 0.01 93 1015.3
20260904110100 68 0 0.0 0.0 0.00 0.08 0.01 93 1015.1
20260904105551 68 0 0.0 0.0 0.00 0.16 0.01 93 1015.1
20260904105051 68 0 0.0 0.0 0.00 0.16 0.01 93 1015.1
20260904104600 68 0 0.0 0.0 0.00 0.16 0.01 93 1014.9
20260904104050 68 0 0.0 0.0 0.00 0.16 0.01 92 1014.8
20260904103550 69 0 0.0 0.0 0.00 0.16 0.01 92 1014.8
20260904103056 69 0 0.0 0.0 0.00 0.16 0.01 92 1014.6
20260904102552 69 0 0.0 0.0 0.00 0.16 0.01 92 1014.6
20260904102052 69 0 0.0 0.0 0.00 0.16 0.01 92 1014.7
20260904101557 69 0 0.0 0.0 0.00 0.16 0.01 92 1014.5
20260904101052 69 0 0.0 0.0 0.00 0.16 0.01 92 1014.5
20260904100552 69 0 0.0 3.5 0.00 0.16 0.01 92 1014.4
20260904100103 69 0 0.0 5.2 0.00 0.16 0.01 92 1014.6
20260904095552 69 0 0.0 5.2 0.00 0.52 0.01 92 1014.5
20260904095051 69 270 1.7 3.5 0.00 0.52 0.01 92 1014.6
20260904094611 69 0 0.0 2.6 0.00 0.52 0.01 92 1014.7
20260904094051 69 0 0.0 0.0 0.00 0.52 0.01 92 1014.6
20260904093554 70 0 0.0 0.0 0.00 0.52 0.01 92 1014.6
20260904093103 70 0 0.0 0.0 0.00 0.52 0.01 92 1014.7
20260904092551 70 0 0.0 0.0 0.00 0.52 0.01 92 1014.4
20260904092051 70 0 0.0 0.0 0.00 0.52 0.01 92 1014.4
20260904091601 70 0 0.0 0.0 0.00 0.52 0.01 92 1014.1
20260904091051 70 0 0.0 0.0 0.00 0.52 0.01 92 1014.2
20260904090554 70 0 0.0 0.0 0.00 0.52 0.01 92 1014.4
20260904090057 70 0 0.0 0.0 0.00 0.52 0.01 92 1014.6
20260904085552 70 0 0.0 0.0 0.00 0.52 0.01 92 1014.6
20260904085052 70 0 0.0 0.0 0.00 0.52 0.01 92 1014.7
20260904084602 70 0 0.0 0.0 0.00 0.52 0.01 92 1014.7
20260904084051 70 0 0.0 0.0 0.00 0.52 0.01 92 1014.7
20260904083553 70 0 0.0 0.0 0.00 0.52 0.01 92 1014.7
20260904083103 70 0 0.0 0.0 0.00 0.52 0.01 91 1014.6
20260904082552 70 0 0.0 0.0 0.00 0.52 0.01 91 1014.6
20260904082050 70 0 0.0 0.0 0.00 0.52 0.01 91 1014.8
20260904081636 70 0 0.0 0.0 0.00 0.52 0.01 91 1014.8
20260904081052 70 0 0.0 0.0 0.00 0.52 0.01 91 1014.7
20260904080552 70 0 0.0 0.0 0.00 0.52 0.01 91 1014.7
20260904080108 70 0 0.0 0.0 0.00 0.52 0.01 91 1014.5
20260904075553 70 0 0.0 0.0 0.00 0.52 0.01 91 1014.5
20260904075052 70 0 0.0 0.0 0.00 0.52 0.01 91 1014.6
20260904074617 70 0 0.0 0.0 0.00 0.52 0.01 91 1014.5
20260904074051 70 0 0.0 0.0 0.00 0.52 0.01 91 1014.5
20260904073551 70 0 0.0 0.0 0.00 0.52 0.01 91 1014.6
20260904073109 70 0 0.0 0.0 0.00 0.52 0.01 90 1014.7
20260904072552 70 0 0.0 0.0 0.00 0.52 0.01 90 1014.4
20260904072052 70 0 0.0 3.5 0.00 0.52 0.01 90 1014.4
20260904071602 70 0 0.0 4.3 0.00 0.52 0.01 90 1014.2
20260904071052 70 0 1.7 6.1 0.00 0.52 0.01 90 1014.4
20260904070552 70 0 1.7 6.1 0.00 0.52 0.01 91 1014.3
20260904070115 70 295 1.7 5.2 0.00 0.52 0.01 91 1014.1
20260904065552 70 250 0.9 3.5 0.00 0.52 0.01 91 1014.1
20260904065052 70 0 0.0 2.6 0.00 0.52 0.01 91 1013.7
20260904064556 70 0 0.0 2.6 0.00 0.52 0.01 90 1013.6
20260904064051 70 0 0.0 3.5 0.00 0.52 0.01 90 1013.4
20260904063551 70 0 0.0 3.5 0.00 0.52 0.01 90 1013.3
20260904063101 70 0 0.9 3.5 0.00 0.52 0.01 90 1013.2
20260904062552 70 0 1.7 3.5 0.00 0.52 0.01 90 1013.3
20260904062051 70 0 0.0 1.7 0.00 0.52 0.01 90 1013.4
20260904061604 70 0 0.0 1.7 0.00 0.52 0.01 90 1013.3
20260904061052 71 0 0.0 0.0 0.00 0.52 0.01 89 1013.3
20260904060552 71 0 0.0 0.0 0.00 0.52 0.01 89 1013.4
20260904060106 71 0 0.0 0.0 0.00 0.52 0.01 89 1013.2
20260904055551 71 0 0.0 0.0 0.00 0.52 0.01 88 1013.0
20260904055051 71 0 0.0 0.0 0.00 0.52 0.01 88 1013.0
20260904054607 71 0 0.0 0.0 0.00 0.52 0.01 88 1013.1
20260904054051 71 0 0.0 0.0 0.00 0.52 0.01 87 1013.1
20260904053551 71 0 0.0 0.0 0.00 0.52 0.01 87 1013.1
20260904053104 72 0 0.0 0.0 0.00 0.52 0.01 87 1013.2
20260904052553 72 0 0.0 0.0 0.00 0.52 0.01 87 1013.3
20260904052053 72 0 0.0 2.6 0.00 0.52 0.01 87 1013.3
20260904051558 72 0 0.0 2.6 0.00 0.52 0.01 86 1013.3
20260904051050 72 0 0.0 3.5 0.01 0.52 0.01 86 1013.3
20260904050551 72 0 0.0 5.2 0.01 0.52 0.01 86 1013.6
20260904045552 73 260 1.7 6.1 0.01 0.52 0.01 85 1013.7
20260904045052 73 0 2.6 7.8 0.01 0.52 0.01 84 1013.7
20260904044603 74 248 1.7 7.8 0.01 0.52 0.01 83 1013.7
20260904044056 74 269 2.6 7.8 0.01 0.52 0.01 82 1013.9
20260904043554 74 261 3.5 7.8 0.01 0.52 0.01 82 1013.9
20260904043124 74 275 4.3 7.8 0.01 0.52 0.01 81 1014.0
20260904042550 75 277 2.6 8.7 0.01 0.52 0.01 80 1013.9
20260904042053 75 275 6.1 11.3 0.01 0.52 0.01 80 1013.8
20260904041606 75 238 6.1 11.3 0.01 0.52 0.01 80 1014.3
20260904041052 76 261 4.3 10.4 0.00 0.51 0.00 81 1014.5
20260904040551 76 261 4.3 13.0 0.00 0.51 0.00 80 1014.3
20260904040107 76 261 6.1 13.0 0.00 0.51 0.00 80 1014.7
20260904035552 76 273 7.0 11.3 0.00 0.51 0.51 83 1014.8
20260904035051 76 281 6.1 9.6 0.00 0.51 0.51 86 1015.0
20260904034555 76 270 5.2 9.6 0.00 0.51 0.51 87 1015.1
20260904034052 76 275 5.2 7.8 0.00 0.51 0.51 88 1015.4
20260904033552 76 267 3.5 8.7 0.00 0.51 0.51 88 1015.4
20260904033057 76 265 4.3 8.7 0.00 0.51 0.51 89 1015.6
20260904032549 76 260 5.2 8.7 0.00 0.51 0.51 90 1015.5
20260904032051 77 273 5.2 7.8 0.00 0.51 0.51 90 1015.6
20260904031602 77 278 2.6 6.1 0.00 0.51 0.51 90 1015.6
20260904031051 77 276 3.5 6.1 0.00 0.51 0.51 90 1015.6
20260904030551 77 280 3.5 6.1 0.00 0.51 0.51 90 1015.7
20260904030100 77 289 0.9 6.1 0.00 0.51 0.51 90 1015.6
20260904025552 77 0 0.0 6.1 0.00 0.51 0.51 90 1015.6
20260904025052 77 291 1.7 6.1 0.00 0.51 0.51 90 1016.1
20260904024605 77 0 0.0 0.0 0.00 0.51 0.51 89 1015.9
20260904024056 77 0 0.0 0.0 0.00 0.51 0.51 89 1015.9
20260904023553 77 0 0.0 0.0 0.00 0.51 0.51 89 1015.6
20260904023102 77 0 0.0 0.0 0.00 0.51 0.51 88 1015.4
20260904022552 77 0 0.0 0.0 0.00 0.51 0.51 88 1015.1
20260904022051 77 0 0.0 0.0 0.00 0.51 0.51 88 1014.9
20260904021602 77 0 0.0 0.0 0.00 0.51 0.51 88 1014.9
20260904021051 77 0 0.0 0.0 0.00 0.51 0.51 88 1014.8
20260904020551 78 0 0.0 0.0 0.00 0.51 0.51 87 1015.0
20260904020101 78 0 0.0 0.0 0.00 0.51 0.51 87 1015.0
20260904015550 78 0 0.0 0.0 0.00 0.51 0.51 87 1015.1
20260904015051 78 0 0.0 0.0 0.00 0.51 0.51 86 1015.1
20260904014642 78 0 0.0 0.0 0.00 0.51 0.51 86 1014.9
20260904014052 78 0 0.0 0.0 0.00 0.51 0.51 86 1014.7
20260904013551 79 0 0.0 0.0 0.00 0.51 0.51 86 1014.7
20260904013059 79 0 0.0 0.0 0.00 0.51 0.51 86 1014.5
20260904012551 79 0 0.0 0.0 0.00 0.51 0.51 86 1014.5
20260904012050 78 0 0.0 0.0 0.00 0.51 0.51 85 1014.4
20260904011602 78 0 0.0 0.0 0.00 0.51 0.51 84 1014.5
20260904011054 79 0 0.0 0.0 0.00 0.51 0.51 84 1014.4
20260904010551 79 0 0.0 0.0 0.00 0.51 0.51 84 1014.6
20260904010057 79 0 0.0 0.0 0.00 0.51 0.51 84 1014.6
20260904005551 79 0 0.0 0.0 0.00 0.51 0.51 83 1014.6
20260904005052 79 0 0.0 0.0 0.00 0.51 0.51 84 1014.7
20260904004604 79 0 0.0 0.0 0.00 0.51 0.51 84 1014.7
20260904004052 79 0 0.0 0.0 0.00 0.51 0.51 84 1014.9
20260904003551 78 0 0.0 0.0 0.00 0.51 0.51 84 1014.9
20260904003100 78 0 0.0 0.0 0.00 0.51 0.51 84 1015.0
20260904002552 78 0 0.0 0.0 0.00 0.51 0.51 84 1015.0
20260904002052 78 0 0.0 0.0 0.00 0.51 0.51 84 1015.0
20260904001602 78 0 0.0 0.0 0.00 0.51 0.51 84 1015.0
20260904001051 79 0 0.0 0.0 0.00 0.51 0.51 84 1015.2
20260904000551 79 0 0.0 0.0 0.00 0.51 0.51 84 1015.2
20260904000140 79 0 0.0 0.0 0.00 0.51 0.51 83 1015.4
20260903235550 79 0 0.0 0.0 0.00 0.51 0.51 83 1015.3
20260903235051 80 0 0.0 0.0 0.00 0.51 0.51 82 1015.2
20260903234605 80 0 0.0 0.0 0.00 0.51 0.51 80 1014.9
20260903234051 80 0 0.0 0.0 0.00 0.51 0.51 80 1014.9
20260903233551 80 0 0.0 0.0 0.00 0.51 0.51 79 1014.8
20260903233057 81 0 0.0 0.0 0.00 0.51 0.51 79 1014.5
20260903232551 81 0 0.0 0.0 0.00 0.51 0.51 79 1014.4
20260903232055 81 0 0.0 0.0 0.00 0.51 0.51 78 1014.5
20260903231618 81 0 0.0 0.0 0.00 0.51 0.51 77 1014.7
20260903231051 82 0 0.0 0.0 0.00 0.51 0.51 77 1014.6
20260903230551 82 0 0.0 0.0 0.00 0.51 0.51 76 1014.6
20260903230105 82 0 0.0 1.7 0.00 0.51 0.51 76 1014.4
20260903225556 83 0 0.0 2.6 0.00 0.51 0.51 75 1014.4
20260903225052 83 0 0.0 2.6 0.00 0.51 0.51 73 1014.5
20260903224602 84 0 0.0 3.5 0.00 0.51 0.51 72 1014.4
20260903224053 84 259 0.9 3.5 0.00 0.51 0.51 72 1014.4
20260903223551 84 259 0.9 5.2 0.00 0.51 0.51 72 1014.4
20260903223103 84 259 0.9 5.2 0.00 0.51 0.51 71 1014.3
20260903222555 85 259 0.9 6.1 0.00 0.51 0.51 70 1014.2
20260903222051 85 259 0.9 6.1 0.00 0.51 0.51 70 1014.2
20260903221559 85 258 0.9 6.1 0.00 0.51 0.51 69 1014.2
20260903221051 86 260 2.6 6.1 0.00 0.51 0.51 69 1014.1
20260903220550 86 250 2.6 7.0 0.00 0.51 0.51 68 1014.0
20260903220109 86 0 0.9 8.7 0.00 0.51 0.51 67 1014.0
20260903215551 86 263 1.7 8.7 0.00 0.51 0.51 67 1014.1
20260903215052 86 258 5.2 8.7 0.00 0.51 0.51 66 1014.0
20260903214606 87 248 4.3 8.7 0.00 0.51 0.51 66 1014.1
20260903214051 87 293 0.9 7.0 0.00 0.51 0.51 68 1014.0
20260903213551 86 251 2.6 7.0 0.00 0.51 0.51 67 1014.0
20260903213104 86 263 1.7 6.1 0.00 0.51 0.51 67 1014.0
20260903212551 86 226 0.9 9.6 0.00 0.51 0.51 70 1014.0
20260903212051 86 0 1.7 9.6 0.00 0.51 0.51 69 1013.9
20260903211559 85 239 2.6 7.8 0.00 0.51 0.51 69 1013.9
20260903211051 85 259 1.7 7.0 0.00 0.51 0.51 69 1013.8
20260903210552 85 253 2.6 7.0 0.00 0.51 0.51 69 1013.9
20260903210104 85 0 0.9 7.8 0.00 0.51 0.51 70 1014.1
20260903205554 85 245 1.7 7.8 0.00 0.51 0.51 68 1014.2
20260903205051 85 211 0.9 6.1 0.00 0.51 0.51 70 1014.2
20260903204608 85 273 0.9 8.7 0.00 0.51 0.51 70 1014.2
20260903204050 85 219 0.9 8.7 0.00 0.51 0.51 68 1014.2
20260903203553 85 229 1.7 8.7 0.00 0.51 0.51 68 1014.1
20260903203106 86 252 1.7 8.7 0.00 0.51 0.51 67 1014.2
20260903202552 86 239 2.6 7.8 0.00 0.51 0.51 67 1014.3
20260903202052 86 0 1.7 7.8 0.00 0.51 0.51 68 1014.2
20260903201604 86 200 2.6 7.8 0.00 0.51 0.51 65 1014.3
20260903201050 86 255 1.7 7.0 0.00 0.51 0.51 67 1014.4
20260903200551 86 217 3.5 7.0 0.00 0.51 0.51 68 1014.5
20260903200101 86 0 2.6 7.8 0.00 0.51 0.51 67 1014.5
20260903195552 86 252 0.9 8.7 0.00 0.51 0.51 66 1014.5
20260903195051 86 296 4.3 8.7 0.00 0.51 0.51 65 1014.6
20260903194606 86 271 4.3 8.7 0.00 0.51 0.51 66 1014.6
20260903194050 86 283 4.3 8.7 0.00 0.51 0.51 68 1014.7
20260903193551 85 0 2.6 8.7 0.00 0.51 0.51 66 1014.7
20260903193103 85 246 0.9 7.8 0.00 0.51 0.51 68 1014.8
20260903192552 85 255 3.5 9.6 0.00 0.51 0.51 67 1015.0
20260903192052 85 0 3.5 9.6 0.00 0.51 0.51 68 1015.0
20260903191606 85 271 2.6 8.7 0.00 0.51 0.51 68 1015.1
20260903191051 85 0 1.7 9.6 0.00 0.51 0.51 66 1015.2
20260903190551 85 275 4.3 9.6 0.00 0.51 0.51 64 1015.2
20260903190109 85 0 4.3 9.6 0.00 0.51 0.51 66 1015.2
20260903185551 85 214 1.7 7.0 0.00 0.51 0.51 68 1015.4
20260903185051 86 257 2.6 12.2 0.00 0.51 0.51 70 1015.5
20260903184559 86 0 2.6 12.2 0.00 0.51 0.51 69 1015.4
20260903184052 85 276 6.1 12.2 0.00 0.51 0.51 65 1015.6
20260903183551 86 261 3.5 9.6 0.00 0.51 0.51 65 1015.5
20260903183103 86 300 4.3 9.6 0.00 0.51 0.51 65 1015.5
20260903182554 85 284 2.6 11.3 0.00 0.51 0.51 69 1015.5
20260903182051 85 264 1.7 11.3 0.00 0.51 0.51 67 1015.7
20260903181600 85 286 6.1 10.4 0.00 0.51 0.51 66 1015.8
20260903181053 85 265 5.2 11.3 0.00 0.51 0.51 68 1015.8
20260903180551 84 295 7.0 11.3 0.00 0.51 0.51 68 1015.9
20260903175551 84 260 3.5 10.4 0.00 0.61 0.51 72 1016.1
20260903175051 84 277 2.6 10.4 0.00 0.61 0.51 71 1016.0
20260903174609 84 287 4.3 10.4 0.00 0.61 0.51 73 1016.0
20260903174052 83 269 4.3 10.4 0.00 0.61 0.51 74 1016.2
20260903173552 83 298 5.2 10.4 0.00 0.61 0.51 73 1016.1
20260903173111 82 259 5.2 10.4 0.00 0.61 0.51 73 1016.2
20260903172551 83 0 5.2 9.6 0.00 0.61 0.51 77 1016.3
20260903172050 82 283 4.3 9.6 0.00 0.61 0.51 76 1016.3
20260903171607 82 250 4.3 10.4 0.00 0.61 0.51 78 1016.4
20260903171051 81 272 6.1 13.0 0.00 0.61 0.51 80 1016.5
20260903170551 81 256 7.8 13.0 0.00 0.61 0.51 77 1016.6
20260903170112 81 275 6.1 13.0 0.00 0.61 0.51 79 1016.6
20260903165551 81 263 3.5 13.9 0.00 0.76 0.51 82 1016.6
20260903165050 80 253 7.0 13.9 0.00 0.76 0.51 81 1016.6
20260903164604 79 249 7.8 13.0 0.00 0.76 0.51 82 1016.7
20260903164054 79 242 7.0 12.2 0.00 0.76 0.51 82 1016.9
20260903163550 79 264 6.1 12.2 0.00 0.76 0.51 84 1017.1
20260903163113 79 270 5.2 12.2 0.00 0.76 0.51 85 1017.1
20260903162551 78 306 7.0 12.2 0.00 0.76 0.51 88 1017.2
20260903162051 78 265 6.1 9.6 0.00 0.76 0.51 87 1017.3
20260903161605 78 264 4.3 9.6 0.00 0.76 0.51 89 1017.4
20260903161052 77 261 3.5 6.1 0.01 0.76 0.51 90 1017.4
20260903160553 76 286 0.0 6.1 0.01 0.76 0.51 92 1017.5
20260903160108 75 0 2.6 6.1 0.01 0.76 0.51 93 1017.4
20260903155550 74 0 1.7 7.0 0.02 1.00 0.51 94 1017.4
20260903155050 73 263 2.6 7.0 0.03 1.00 0.51 94 1017.4
20260903154607 73 258 3.5 7.0 0.04 1.00 0.51 94 1017.4
20260903154051 73 267 1.7 6.1 0.04 1.00 0.51 94 1017.5
20260903153551 72 0 0.0 7.0 0.05 1.00 0.51 94 1017.3
20260903153059 72 0 0.0 10.4 0.05 1.00 0.51 94 1017.3
20260903152551 72 268 1.7 11.3 0.05 1.00 0.51 94 1017.5
20260903152051 72 251 2.6 11.3 0.05 1.00 0.51 93 1017.7
20260903151603 72 0 3.5 9.6 0.05 1.00 0.51 93 1017.9
20260903151050 72 242 1.7 9.6 0.04 0.99 0.50 93 1018.0
20260903150549 73 215 0.9 8.7 0.04 0.99 0.50 93 1017.9
20260903150119 73 235 1.7 8.7 0.04 0.99 0.50 92 1018.5
20260903145551 73 262 4.3 8.7 0.03 0.98 0.49 92 1018.6
20260903145051 73 241 5.2 10.4 0.02 0.97 0.48 92 1018.7
20260903144602 74 270 6.1 10.4 0.01 0.96 0.47 91 1018.9
20260903144051 74 300 6.1 9.6 0.01 0.96 0.47 91 1018.9
20260903143550 74 277 4.3 8.7 0.00 0.95 0.46 92 1018.9
20260903143104 74 295 5.2 7.8 0.00 0.95 0.46 92 1019.3
20260903142552 74 291 3.5 9.6 0.00 0.95 0.46 91 1019.0
20260903142054 74 305 3.5 9.6 0.00 0.95 0.46 92 1018.9
20260903141559 75 329 3.5 10.4 0.00 0.95 0.46 92 1019.1
20260903141112 75 309 5.2 10.4 0.00 0.95 0.46 92 1018.9
20260903140552 75 289 5.2 9.6 0.00 0.95 0.46 93 1018.6
20260903140058 75 292 4.3 9.6 0.00 0.95 0.46 94 1018.1